Miscellaneous Local Product
Issued by NWS Hastings, NE

Home | Current Version | Previous Version | Text Only | Print | Product List | Glossary On
Versions: 1 2 3 4 5 6 7 8 9 10 11 12 13 14 15 16 17 18 19 20 21 22 23 24 25 26 27 28 29 30 31 32 33 34 35 36 37 38 39 40 41 42 43 44 45 46 47 48 49 50
000
AXUS43 KGID 241702
MISGRI

GID CWA HOURLY WEATHER ROUNDUP
NATIONAL WEATHER SERVICE HASTINGS NE
1200 PM CDT SUN MAY 24 2015

NOTE: "FAIR" INDICATES FEW OR NO CLOUDS BELOW 12,000 FEET WITH NO
SIGNIFICANT WEATHER AND/OR OBSTRUCTIONS TO VISIBILITY.

...SOUTH CENTRAL NEBRASKA...

CITY           SKY/WX    TMP DP  RH WIND       PRES   REMARKS
GRAND ISLAND   CLOUDY    66  57  72 CALM      29.85S
HASTINGS       CLOUDY    64  57  78 SW3       29.86S
KEARNEY        CLOUDY    63  55  77 CALM      29.86S
ORD            CLOUDY    62  57  83 N3        29.85S
YORK           CLOUDY    64  59  82 NW5       29.84F
AURORA         CLOUDY    65  61  85 NW3       29.85S
LEXINGTON      CLOUDY    62  58  87 CALM      29.87S
HOLDREGE       CLOUDY    63  57  81 SW6       29.86F
HEBRON         CLOUDY    66  59  79 SW3       29.86S

...NEBRASKA PANHANDLE...

CITY           SKY/WX    TMP DP  RH WIND       PRES   REMARKS
CHADRON        PTSUNNY   60  53  77 NE10      29.88F
ALLIANCE       CLOUDY    58  52  80 E3        29.88S
SCOTTSBLUFF    PTSUNNY   60  51  72 E6        29.88F
SIDNEY         CLOUDY    54  49  83 E3        29.91S

...WESTERN AND NORTH CENTRAL NEBRASKA...

CITY           SKY/WX    TMP DP  RH WIND       PRES   REMARKS
VALENTINE      CLOUDY    59  56  89 E10       29.89S
AINSWORTH      CLOUDY    59  58  97 E7        29.90R
ONEILL         CLOUDY    62  61  96 NE8       29.88S
BROKEN BOW     CLOUDY    63  57  81 CALM      29.87S
IMPERIAL       PTSUNNY   64  54  69 E7        29.87F
NORTH PLATTE   CLOUDY    62  54  74 S5        29.88F
MCCOOK         CLOUDY    65  56  72 VRB3      29.86F

...EASTERN NEBRASKA...

CITY           SKY/WX    TMP DP  RH WIND       PRES   REMARKS
NORFOLK        CLOUDY   N/A N/A N/A NE5       29.84F
SO SIOUX CITY  CLOUDY    63  58  83 E9        29.85S
TEKAMAH        LGT RAIN  64  61  90 S7        29.84R
COLUMBUS       CLOUDY    63  55  77 NE5       29.88S
ALBION         CLOUDY    61  59  92 CALM      29.85S
OMAHA EPPLEY   CLOUDY    64  62  93 S6        29.83F FOG
OFFUTT AFB     CLOUDY    65  63  92 S6        29.82F
MILLARD        CLOUDY    64  62  90 CALM      29.84S
LINCOLN        CLOUDY    66  61  84 CALM      29.85S
NEBRASKA CITY  CLOUDY    65  65  97 W8        29.84S
BEATRICE       CLOUDY    66  61  85 W5        29.85R
FALLS CITY     CLOUDY    69  62  78 S9        29.86R

...NORTHERN KANSAS...

CITY           SKY/WX    TMP DP  RH WIND       PRES   REMARKS
GOODLAND       CLOUDY    61  55  81 S5        29.88S
HILL CITY      CLOUDY    61  58  90 S6        29.88S
NORTON         CLOUDY    61  54  77 CALM      29.86S
PHILLIPSBURG   CLOUDY    66  59  77 S7        29.87R
SMITH CENTER   CLOUDY    63  57  82 S5        29.88S
HAYS           CLOUDY    66  55  68 S8        29.86F
RUSSELL        CLOUDY    68  60  75 S12       29.85F
CONCORDIA      CLOUDY    65  60  84 S12       29.87R
SALINA         CLOUDY    67  60  78 S12       29.88F
TOPEKA         LGT RAIN  68  63  84 S7        29.90R



USA.gov is the U.S. government's official web portal to all federal, state and local government web resources and services.